Location: Unspecified
(0.0000°N, 0.0000°E)
Time: 21:39:06
(UTC+00:00)

COSMOS 1275 DEB - Visible Passes

Search period start: 09 February 2026 00:00
Search period end: 19 February 2026 00:00
Orbit: 599 x 617 km, 82.9° (Epoch: 9 February)

Date Brightness Start Highest point End Pass type
(mag) Time Alt. Az. Time Alt. Az. Time Alt. Az.
9 Feb ? 18:52:20 10° SSE 18:56:24 38° E 19:00:24 10° NNE visible
10 Feb ? 19:05:42 10° S 19:10:03 81° E 19:14:22 10° N visible
11 Feb ? 19:19:27 10° SSW 19:23:38 47° W 19:27:47 10° NNW visible
12 Feb ? 19:33:40 10° SW 19:37:08 23° W 19:40:35 10° NNW visible
13 Feb ? 19:49:02 10° WSW 19:50:35 12° W 19:52:07 10° WNW visible
15 Feb ? 18:35:41 10° S 18:40:01 78° W 18:44:18 10° N visible
16 Feb ? 18:49:15 10° SSW 18:53:14 37° W 18:57:12 10° NNW visible
17 Feb ? 05:21:23 10° ENE 05:22:28 11° E 05:23:33 10° ESE visible
17 Feb ? 19:03:21 10° SW 19:06:23 19° W 19:09:25 10° NW visible
18 Feb ? 05:32:16 10° NE 05:35:35 22° E 05:38:55 10° SE visible
